Wind_Speed
98 98 98 86 77 73 69 70 76 74 67 68 81 88 87 94 109 106 110 108 107 100 96 94 92 92 91 85 75 73 68 66 71 66 60 54 50 45 43 37 34 33 28 24 23 20 16
99 99 103 92 80 76 74 75 79 70 60 58 63 79 91 90 100 112 110 115 112 105 97 100 97 97 95 89 90 85 72 62 64 69 65 60 55 50 45 38 37 37 32 29 25 22 20
102 105 105 93 83 79 78 81 76 65 54 49 52 66 83 94 92 107 115 118 116 114 105 105 101 97 99 93 95 94 83 71 67 71 70 66 61 49 49 40 41 40 33 33 30 27 24
107 106 105 98 86 84 83 83 72 59 48 43 43 49 70 88 96 98 114 116 122 121 112 110 107 100 96 100 100 99 93 83 74 72 74 70 63 57 51 44 46 43 40 36 33 31 28
107 111 110 98 89 87 87 86 71 55 44 39 38 41 51 74 90 97 102 119 121 125 117 115 112 108 95 99 100 102 97 89 82 71 74 75 69 62 54 53 48 44 40 38 37 36 32
107 112 111 103 93 91 90 87 69 53 43 36 33 36 42 56 79 95 103 108 120 129 125 119 116 116 101 93 101 103 101 94 89 79 70 77 72 66 61 53 46 49 48 44 39 42 38
111 115 112 105 98 92 92 89 70 53 42 35 29 31 39 49 65 88 100 108 114 122 132 129 122 109 111 104 102 106 103 97 92 87 74 68 75 65 61 61 60 58 57 50 49 45 41
112 119 113 111 100 95 94 91 72 55 42 33 28 27 32 44 54 74 93 104 109 123 134 133 122 115 116 110 102 105 109 102 94 89 80 75 56 71 73 69 65 64 59 55 50 51 46
113 121 116 114 105 97 96 93 75 59 44 32 28 25 26 38 50 63 83 101 112 115 127 133 122 121 117 118 107 104 104 105 98 95 84 78 68 79 78 72 70 65 63 59 57 55 49
121 126 118 114 106 100 97 97 79 62 48 35 27 25 24 30 45 57 74 93 109 113 122 131 129 125 124 119 116 102 103 106 106 102 95 86 78 79 80 76 73 71 71 65 59 58 52
123 127 122 114 112 103 97 98 84 65 52 39 28 24 22 25 37 51 64 83 102 112 113 128 133 128 127 119 117 113 103 104 105 103 100 90 84 80 76 78 76 75 77 66 64 63 56
123 125 126 120 110 108 99 97 91 70 55 43 31 25 21 20 28 44 58 73 95 110 111 125 131 131 127 125 124 123 109 105 105 107 105 102 94 88 84 84 82 85 81 68 69 66 56
121 127 126 122 117 111 101 95 95 77 59 47 35 26 20 17 23 35 51 66 86 101 114 119 130 133 133 132 126 127 126 109 106 106 107 103 97 92 88 86 89 82 79 72 67 62 53
117 125 124 123 117 113 104 98 95 84 65 50 38 28 21 15 20 27 44 60 78 97 116 125 127 134 138 137 131 126 128 124 106 106 107 106 101 95 89 86 81 78 82 77 68 63 64
115 122 127 124 119 114 110 100 95 91 71 55 43 31 21 15 16 23 37 54 71 87 112 124 127 127 132 136 136 129 131 124 117 107 107 103 104 100 95 93 88 80 77 80 77 72 71
111 118 127 125 121 119 113 103 96 94 75 59 48 34 24 15 14 21 30 44 59 75 98 116 126 126 127 136 138 137 130 126 119 111 107 109 103 104 102 100 91 81 86 85 79 72 67
109 115 124 127 126 123 115 110 99 95 86 66 52 41 28 17 14 16 25 35 51 66 84 109 122 125 128 135 142 139 135 124 122 114 109 113 115 110 107 103 95 88 80 80 78 77 71
108 111 120 127 130 125 121 115 108 96 93 74 58 46 33 21 14 14 21 31 42 60 74 91 115 122 125 129 138 144 136 131 126 121 112 111 116 112 106 109 105 96 88 80 72 67 73
108 111 117 123 129 126 123 118 108 98 93 85 67 51 38 27 16 12 18 26 35 46 62 77 101 121 126 128 131 141 137 132 131 128 120 116 118 117 118 112 110 104 96 90 87 83 77
107 110 115 121 127 131 124 122 112 106 93 89 76 60 44 32 22 13 14 21 30 38 52 67 87 111 125 129 131 132 136 135 134 133 128 119 117 116 108 100 101 100 100 100 100 96 84
107 110 115 122 122 130 124 124 118 108 98 90 86 68 53 38 27 18 10 16 24 34 45 59 77 94 118 126 128 125 128 134 134 131 133 131 118 111 106 110 113 108 107 104 102 91 96
104 110 113 121 122 128 129 124 122 111 104 91 88 79 60 47 34 24 13 11 19 29 39 51 65 80 101 122 128 127 127 132 134 131 130 135 128 117 112 114 114 113 112 114 111 101 101
105 109 114 119 121 121 130 129 123 116 105 96 87 84 69 53 41 29 19 10 15 25 36 42 56 73 89 109 121 129 131 130 135 135 132 127 132 127 121 115 117 122 114 107 106 104 102
104 107 112 117 120 123 126 130 119 114 106 97 88 85 79 61 45 33 23 14 13 21 29 38 51 65 83 97 117 125 129 130 133 135 136 132 128 129 123 121 127 112 110 112 115 112 108
105 107 111 115 118 121 123 126 121 114 107 100 89 83 82 71 53 39 28 18 14 19 26 34 48 62 76 90 109 126 130 130 131 132 133 131 132 129 128 124 119 113 114 112 111 107 108
107 109 110 113 117 120 122 121 119 113 108 100 91 83 79 77 61 45 32 23 14 18 24 32 42 57 69 83 98 115 128 128 128 130 133 135 134 133 132 132 121 106 108 112 114 114 111
108 110 111 112 115 119 121 118 119 113 107 100 93 83 77 76 69 54 39 28 18 13 19 26 37 48 63 78 91 105 122 130 131 128 130 130 130 136 134 136 133 118 111 110 119 106 110
109 112 112 111 113 117 122 121 117 116 110 99 94 87 76 74 73 63 48 33 21 14 16 23 33 42 54 69 81 92 104 123 127 131 129 130 132 134 137 135 130 124 120 116 110 112 118
113 112 112 114 114 115 118 120 116 114 107 96 93 87 78 74 73 68 56 42 29 18 13 18 28 36 47 60 74 82 91 107 125 133 134 132 134 133 134 134 129 127 128 124 118 115 115
Wind_Direction
350 343 344 338 331 325 317 309 302 299 286 269 257 253 248 233 231 229 222 220 219 219 218 219 219 216 215 214 214 223 223 223 231 223 221 217 219 221 228 219 227 239 225 214 205 199 192
349 345 344 339 332 328 322 317 314 309 293 273 253 245 244 239 230 228 223 218 217 218 216 217 217 218 214 213 216 217 216 219 228 223 220 216 216 214 223 219 224 229 227 214 206 200 202
350 350 346 342 337 334 328 323 322 315 298 280 259 242 236 236 229 227 225 217 213 215 214 214 216 217 217 213 215 218 217 220 225 229 221 221 216 218 220 219 220 230 231 219 212 202 204
355 352 349 346 342 339 334 333 329 321 306 288 267 246 234 229 228 222 223 220 213 213 214 213 214 213 214 216 214 216 217 219 223 228 226 220 221 218 222 221 217 222 225 230 218 208 210
355 354 350 349 346 344 340 339 334 326 313 295 276 254 234 227 225 222 219 220 215 210 213 212 212 212 209 215 216 216 217 217 219 223 227 220 219 217 219 222 222 220 225 229 232 216 213
355 354 351 351 350 348 345 344 338 332 321 304 281 261 242 227 221 219 215 216 217 209 213 210 212 208 207 210 217 217 218 216 219 220 224 227 218 219 219 222 221 216 219 223 232 227 212
359 357 354 355 354 352 349 347 342 337 329 313 289 268 249 233 221 217 215 212 216 212 212 210 210 208 207 209 209 218 217 216 217 217 216 224 220 221 219 219 217 216 217 218 221 221 219
0 359 357 357 356 355 353 351 347 342 337 322 300 275 254 239 225 217 214 211 210 214 210 212 208 208 208 210 209 216 219 217 217 217 216 218 223 218 219 219 219 217 218 219 221 222 220
359 357 357 360 1 358 355 354 351 346 342 330 310 285 260 238 227 217 214 210 208 210 211 212 211 208 209 209 211 212 217 220 219 218 216 215 218 219 219 220 221 221 220 218 220 226 221
1 0 1 1 1 360 358 356 354 350 346 337 321 296 269 242 225 217 213 211 205 207 211 212 210 208 209 209 212 212 213 216 221 221 217 213 214 222 219 220 222 222 220 221 218 224 221
1 0 2 3 5 2 1 358 357 354 350 343 331 306 278 253 227 218 212 211 205 205 208 211 211 209 210 210 212 214 212 217 220 219 217 215 215 222 227 223 224 224 224 224 219 221 220
2 2 1 4 6 5 2 1 358 356 354 348 339 320 292 262 235 219 213 207 208 204 205 210 211 209 208 210 211 212 211 212 218 220 218 214 215 218 223 222 222 224 225 227 225 225 220
4 3 1 1 4 6 3 3 360 357 356 354 347 334 305 270 244 221 213 209 209 206 206 209 211 209 207 209 212 213 216 215 214 221 220 216 218 218 221 225 227 229 226 229 230 233 233
3 3 2 0 4 7 6 4 4 0 358 357 352 342 318 285 252 225 215 210 208 207 204 207 210 210 208 206 210 213 215 214 213 215 220 221 219 222 225 227 230 232 230 232 232 232 228
2 4 4 2 2 6 8 5 5 3 360 359 357 349 333 298 256 233 217 212 211 209 205 206 208 210 209 210 209 212 215 215 216 216 221 222 220 222 224 228 227 230 233 235 229 229 229
3 4 6 5 1 5 8 7 6 6 3 1 359 356 345 317 271 242 224 216 213 211 209 207 207 209 209 211 210 211 214 214 214 214 216 219 220 223 224 226 225 226 229 235 231 232 234
3 6 6 6 4 2 7 9 7 8 6 3 3 359 353 331 285 251 235 220 215 213 211 208 207 209 209 211 211 211 215 213 215 214 215 217 222 224 226 228 230 227 229 235 231 231 234
2 5 6 6 7 3 4 8 8 7 9 5 5 3 358 345 306 260 237 225 216 215 212 211 209 209 210 213 213 213 212 214 215 215 216 218 221 227 229 228 228 227 224 225 226 230 236
0 3 5 7 8 6 2 5 8 9 9 9 6 5 2 354 328 285 248 232 224 216 215 212 210 210 211 213 215 215 213 215 215 215 217 220 221 222 225 227 229 232 233 233 233 233 234
360 0 4 7 7 7 4 2 6 8 9 10 8 6 3 360 349 309 263 237 229 217 215 212 211 211 213 212 213 216 214 216 217 218 219 221 221 223 226 229 231 232 236 236 238 237 235
358 359 1 3 6 7 5 1 4 7 8 9 11 8 5 4 358 340 285 248 234 223 215 212 210 211 212 214 214 215 215 217 217 219 220 222 224 224 222 221 223 226 226 227 229 230 235
357 358 359 1 3 6 5 2 2 4 6 8 10 10 8 4 1 352 325 255 235 231 220 214 210 210 212 214 213 215 216 218 217 219 221 223 223 222 222 221 223 226 228 230 231 231 236
357 356 359 360 1 4 5 5 1 2 4 5 8 10 9 6 3 356 343 289 242 227 222 214 212 210 211 212 213 214 216 217 219 219 219 221 225 227 227 226 226 228 234 239 236 236 241
356 356 356 358 360 1 3 3 3 1 2 4 5 7 10 8 4 360 349 320 254 234 224 213 209 210 212 213 212 212 215 217 218 220 221 220 222 225 226 228 227 232 233 235 236 238 242
354 355 354 356 358 359 1 1 3 1 359 1 4 5 8 9 6 1 354 341 288 241 228 216 211 210 212 212 213 212 214 216 219 220 221 222 223 224 226 228 230 228 231 234 238 240 240
351 352 353 353 355 356 358 1 3 3 359 358 1 3 5 9 7 3 358 347 320 269 237 220 214 213 213 214 214 214 215 217 219 221 223 224 223 225 227 228 230 228 231 234 237 238 242
349 350 350 351 353 354 356 359 0 1 1 357 358 1 3 6 7 5 1 355 337 294 259 234 218 217 215 215 216 216 215 216 218 221 223 225 226 226 227 230 231 231 230 233 236 238 236
346 347 349 349 351 353 353 356 358 1 359 357 354 357 1 3 6 5 2 356 350 324 276 242 227 218 218 219 218 220 218 217 218 220 223 225 226 227 228 230 230 231 231 234 237 236 235
346 347 347 349 349 350 350 353 355 359 360 359 354 353 359 1 3 4 2 358 349 339 301 258 238 227 220 219 221 221 218 218 219 220 222 224 227 227 229 231 231 231 232 233 234 234 236
Height
10596 10576 10554 10530 10510 10492 10476 10460 10444 10431 10420 10414 10413 10420 10431 10445 10459 10473 10494 10512 10533 10549 10563 10576 10585 10597 10613 10630 10647 10647 10661 10674 10680 10690 10697 10701 10710 10716 10725 10728 10734 10739 10743 10745 10747 10750 10751
10581 10557 10536 10512 10490 10468 10448 10429 10409 10392 10379 10372 10374 10379 10390 10408 10427 10441 10462 10481 10505 10524 10541 10556 10566 10580 10595 10616 10623 10632 10649 10662 10668 10676 10685 10693 10699 10704 10716 10722 10728 10732 10737 10739 10741 10747 10749
10568 10541 10519 10491 10467 10443 10421 10398 10377 10360 10346 10341 10342 10346 10355 10369 10391 10410 10428 10450 10474 10496 10518 10535 10549 10562 10582 10599 10609 10616 10634 10647 10655 10664 10673 10681 10687 10701 10704 10715 10720 10726 10732 10734 10737 10740 10745
10552 10527 10500 10472 10447 10421 10396 10372 10348 10332 10320 10316 10315 10320 10326 10337 10354 10377 10401 10421 10446 10468 10492 10510 10527 10544 10568 10575 10586 10600 10618 10633 10641 10651 10661 10671 10682 10690 10699 10708 10711 10719 10725 10731 10733 10734 10740
10538 10512 10485 10456 10429 10402 10376 10350 10327 10312 10301 10295 10294 10296 10304 10311 10326 10346 10370 10393 10418 10444 10467 10488 10504 10530 10548 10555 10575 10584 10601 10614 10623 10638 10645 10658 10668 10680 10689 10695 10705 10714 10719 10723 10729 10731 10734
10524 10498 10472 10443 10414 10387 10359 10334 10312 10297 10285 10278 10275 10277 10282 10291 10299 10317 10340 10367 10395 10420 10437 10460 10482 10500 10536 10544 10555 10570 10581 10597 10610 10621 10632 10648 10660 10672 10682 10690 10701 10704 10706 10713 10721 10724 10727
10514 10488 10460 10430 10401 10374 10348 10321 10300 10284 10273 10265 10260 10260 10264 10271 10281 10293 10316 10341 10372 10399 10409 10429 10455 10504 10515 10513 10525 10547 10562 10579 10592 10609 10624 10636 10651 10671 10674 10678 10682 10688 10693 10704 10709 10716 10720
10503 10478 10451 10420 10391 10364 10339 10313 10291 10275 10263 10254 10250 10248 10251 10256 10266 10279 10296 10319 10343 10367 10388 10412 10448 10478 10494 10504 10513 10530 10547 10566 10584 10602 10609 10624 10651 10654 10652 10661 10669 10676 10686 10695 10706 10707 10713
10496 10469 10443 10414 10384 10357 10332 10307 10285 10269 10256 10247 10241 10238 10239 10244 10251 10264 10277 10295 10317 10345 10375 10403 10437 10458 10473 10490 10503 10517 10536 10553 10571 10581 10601 10618 10632 10632 10640 10651 10659 10669 10677 10685 10692 10699 10705
10488 10463 10437 10409 10381 10354 10329 10303 10281 10263 10249 10240 10234 10231 10230 10232 10239 10248 10261 10278 10301 10327 10358 10383 10410 10437 10456 10475 10491 10508 10521 10532 10552 10572 10583 10595 10606 10616 10628 10641 10649 10657 10662 10672 10684 10689 10697
10483 10455 10432 10405 10378 10352 10327 10302 10279 10260 10246 10235 10228 10224 10223 10225 10230 10238 10250 10269 10289 10310 10345 10366 10388 10415 10441 10466 10485 10498 10505 10517 10538 10550 10564 10593 10598 10607 10622 10633 10636 10645 10647 10662 10670 10675 10688
10480 10451 10425 10402 10377 10351 10327 10301 10277 10259 10243 10231 10224 10220 10218 10219 10223 10229 10240 10256 10272 10293 10328 10342 10367 10396 10422 10442 10456 10467 10483 10499 10517 10528 10546 10561 10573 10584 10606 10609 10618 10622 10635 10652 10660 10667 10683
10479 10449 10422 10400 10378 10353 10328 10304 10279 10259 10242 10230 10221 10216 10213 10213 10215 10222 10231 10244 10260 10286 10306 10321 10340 10369 10393 10418 10433 10451 10469 10490 10504 10524 10540 10558 10568 10582 10590 10595 10599 10615 10629 10642 10651 10663 10682
10478 10450 10422 10398 10378 10354 10330 10306 10282 10260 10243 10229 10220 10213 10209 10209 10210 10216 10224 10235 10246 10260 10286 10295 10318 10340 10369 10389 10408 10432 10448 10470 10487 10511 10518 10543 10559 10574 10584 10589 10601 10612 10620 10633 10646 10657 10666
10478 10453 10424 10397 10377 10356 10333 10310 10286 10263 10245 10230 10219 10212 10208 10205 10207 10209 10215 10223 10233 10252 10265 10282 10302 10334 10365 10382 10398 10415 10428 10462 10479 10493 10514 10534 10541 10549 10561 10568 10581 10597 10610 10616 10630 10639 10647
10477 10452 10426 10400 10376 10358 10336 10313 10291 10269 10248 10232 10220 10211 10206 10203 10202 10205 10209 10217 10227 10242 10257 10274 10288 10315 10342 10361 10379 10396 10409 10443 10460 10481 10495 10508 10518 10529 10537 10549 10566 10583 10590 10596 10618 10632 10645
10477 10452 10427 10404 10377 10356 10338 10318 10296 10273 10251 10234 10221 10211 10205 10201 10199 10201 10204 10212 10220 10231 10244 10260 10278 10301 10321 10333 10350 10376 10402 10432 10452 10470 10474 10492 10504 10512 10520 10547 10567 10572 10583 10595 10608 10620 10633
10476 10454 10430 10408 10382 10357 10339 10322 10301 10278 10258 10238 10224 10213 10206 10201 10199 10198 10200 10204 10212 10220 10233 10253 10272 10291 10307 10323 10342 10359 10389 10413 10436 10447 10457 10475 10479 10506 10528 10528 10537 10552 10565 10576 10589 10611 10616
10477 10456 10433 10411 10387 10362 10339 10324 10305 10284 10263 10245 10228 10216 10207 10202 10198 10197 10197 10200 10206 10216 10230 10245 10261 10276 10294 10312 10329 10350 10384 10397 10411 10425 10443 10449 10466 10479 10487 10505 10526 10545 10565 10577 10582 10582 10599
10477 10455 10435 10413 10389 10365 10341 10321 10308 10290 10271 10252 10233 10219 10210 10202 10197 10195 10195 10197 10200 10208 10217 10229 10243 10262 10278 10292 10314 10338 10371 10377 10396 10416 10427 10422 10448 10468 10500 10531 10529 10539 10546 10554 10557 10568 10598
10474 10455 10436 10416 10395 10370 10347 10323 10306 10294 10276 10257 10239 10224 10211 10202 10196 10193 10193 10193 10196 10200 10207 10219 10230 10247 10264 10282 10304 10331 10355 10363 10379 10402 10408 10411 10436 10466 10487 10487 10487 10505 10506 10513 10521 10560 10552
10474 10454 10435 10416 10395 10374 10350 10331 10314 10291 10278 10262 10245 10227 10215 10205 10197 10192 10191 10190 10191 10193 10200 10209 10221 10235 10254 10269 10291 10318 10332 10342 10361 10382 10390 10400 10424 10442 10458 10460 10469 10480 10488 10488 10512 10541 10546
10472 10454 10436 10417 10397 10377 10356 10335 10312 10295 10279 10263 10252 10235 10218 10209 10198 10192 10188 10187 10187 10189 10191 10202 10213 10223 10237 10249 10274 10293 10308 10326 10346 10356 10370 10387 10412 10430 10448 10451 10451 10449 10484 10506 10522 10527 10534
10471 10453 10435 10418 10399 10379 10360 10341 10320 10301 10286 10271 10253 10237 10223 10212 10203 10194 10187 10184 10182 10182 10187 10195 10202 10212 10217 10234 10251 10274 10292 10309 10323 10337 10352 10367 10388 10406 10423 10422 10410 10473 10484 10485 10495 10505 10515
10469 10452 10435 10418 10401 10383 10365 10345 10326 10306 10287 10274 10259 10243 10228 10214 10205 10195 10187 10184 10181 10179 10180 10188 10195 10201 10211 10221 10234 10253 10270 10291 10307 10321 10337 10355 10374 10381 10395 10398 10423 10451 10458 10473 10485 10503 10502
10468 10451 10435 10418 10402 10384 10367 10349 10332 10311 10290 10275 10262 10247 10233 10219 10208 10198 10188 10182 10180 10177 10179 10184 10190 10195 10206 10213 10222 10238 10255 10277 10294 10309 10324 10340 10357 10366 10381 10380 10397 10456 10453 10456 10460 10470 10481
10466 10450 10434 10418 10402 10384 10368 10351 10334 10315 10295 10277 10263 10250 10236 10223 10210 10200 10190 10182 10177 10176 10176 10178 10182 10187 10195 10201 10211 10221 10240 10257 10275 10296 10308 10322 10339 10347 10357 10361 10389 10424 10431 10434 10426 10476 10471
10462 10448 10432 10417 10401 10384 10367 10351 10334 10317 10298 10280 10264 10252 10239 10225 10212 10200 10192 10184 10177 10173 10173 10174 10175 10181 10186 10192 10200 10211 10232 10248 10262 10276 10288 10300 10312 10325 10335 10343 10371 10402 10406 10410 10427 10434 10440
10458 10444 10429 10414 10398 10383 10367 10352 10335 10318 10301 10283 10265 10250 10238 10224 10214 10203 10191 10184 10176 10171 10170 10171 10171 10174 10179 10182 10188 10196 10214 10228 10243 10254 10263 10275 10289 10306 10317 10331 10351 10365 10377 10384 10389 10402 10409